Location: ??????
(42.0089°N, 44.3281°E)
Time: 12:13:31
(UTC+00:00)

Cosmos 220 Rocket - Visible Passes

Search period start: 29 May 2022 00:00
Search period end: 08 June 2022 00:00
Orbit: 573 x 613 km, 74.0° (Epoch: 28 May)

Date Brightness Start Highest point End Pass type
(mag) Time Alt. Az. Time Alt. Az. Time Alt. Az.
29 May 5.4 19:47:59 27° ENE 19:47:59 27° ENE 19:50:26 10° NE visible
29 May 5.8 21:24:34 21° WNW 21:25:02 21° WNW 21:28:18 10° N visible
30 May 4.6 19:56:45 46° ENE 19:56:45 46° ENE 19:59:58 10° NNE visible
30 May 6.4 21:33:20 12° WNW 21:34:32 14° NW 21:36:44 10° NNW visible
31 May 4.0 20:05:29 72° N 20:05:29 72° N 20:09:19 10° NNE visible
01 Jun 6.0 18:37:34 13° E 18:37:34 13° E 18:38:46 10° ENE visible
01 Jun 4.6 20:14:09 46° W 20:14:24 47° WNW 20:18:29 10° N visible
02 Jun 5.3 18:46:11 23° E 18:46:11 23° E 18:48:59 10° NE visible
02 Jun 5.5 20:22:45 25° W 20:23:47 29° WNW 20:27:28 10° N visible
03 Jun 4.4 18:54:43 39° ESE 18:54:45 39° ESE 18:58:41 10° NE visible
03 Jun 6.3 20:31:17 14° W 20:33:14 18° WNW 20:36:12 10° NNW visible
04 Jun 3.8 19:03:10 54° SSE 19:03:57 70° ESE 19:08:08 10° NNE visible
04 Jun 6.7 20:41:13 10° WNW 20:42:46 12° NW 20:44:19 10° NNW visible
05 Jun 4.1 19:11:30 34° SW 19:13:12 68° WNW 19:17:25 10° NNE visible
06 Jun 5.5 17:43:10 15° ESE 17:44:34 17° E 17:47:17 10° ENE visible
06 Jun 5.1 19:19:42 17° SW 19:22:31 39° WNW 19:26:30 10° N visible
07 Jun 4.9 17:51:13 17° SSE 17:53:38 28° ESE 17:57:15 10° NE visible
07 Jun 6.0 19:28:28 10° WSW 19:31:55 24° WNW 19:35:23 10° N visible
